Location: Praha
(50.0830°N, 14.4670°E)
Time: 09:48:12
(UTC+02:00)

ISS - Pass Details

Date: 29 April 2025
Orbit: 416 x 419 km, 51.6° (Epoch: 18 May)

Event Time Altitude Azimuth Distance (km) Brightness Sun altitude
Exits shadow 02:13:30 12° 93° (E) 1,364 -1.0 -23.4°
Drops below altitude 10° 02:13:54 10° 89° (E) 1,494 -0.7 -23.4°
Sets 02:16:16 0° 75° (ENE) 2,362 0.5 -23.3°
